Probability
19 18 17 17 17 16 13 11 10 9 7 9 10 11 10 9 8 6 6 6 6 5 5 5 5 6 5 4 4 4 5 5 4 2 3 6 11 11 10 12 10 5 2
21 20 19 17 17 15 13 11 11 10 9 10 12 12 10 9 8 6 4 4 3 3 4 5 4 4 5 4 4 4 4 5 5 4 4 7 9 10 11 11 8 4 2
25 25 22 19 17 16 14 13 14 14 13 13 15 14 11 9 7 4 2 2 2 3 4 5 5 5 5 5 5 5 5 5 5 5 5 6 6 7 8 8 6 3 2
30 29 25 21 19 19 17 16 17 17 16 16 16 13 10 9 6 3 2 3 3 3 4 6 6 6 6 6 5 4 4 5 5 4 3 3 4 4 6 6 5 4 3
34 32 27 23 22 21 19 17 17 16 15 14 13 11 9 7 5 2 2 4 4 4 5 6 6 5 5 5 4 3 4 5 4 3 2 1 2 4 6 6 5 4 3
36 33 28 25 24 22 20 19 18 16 14 13 11 9 7 4 2 1 2 5 6 6 7 8 7 5 4 4 4 3 3 3 3 3 2 1 2 4 5 5 5 4 4
36 34 30 27 26 25 22 21 21 18 15 13 12 9 7 3 1 0 1 4 7 7 7 8 8 6 4 4 4 4 3 2 2 2 3 2 2 4 5 5 5 6 6
36 34 31 28 27 26 24 23 22 20 16 14 13 10 7 4 1 0 1 3 6 7 6 7 7 6 5 4 4 4 3 2 2 1 2 2 2 2 3 4 5 6 6
34 34 31 28 26 25 24 24 22 20 17 14 12 11 9 6 2 0 0 2 5 6 6 6 5 4 4 3 3 4 3 3 2 1 1 1 1 1 1 3 4 5 5
36 35 32 28 25 24 22 21 20 18 15 12 11 11 11 8 4 1 0 2 5 7 6 5 3 2 2 2 3 3 3 3 2 1 1 0 0 0 0 1 2 3 2
40 37 32 27 23 20 20 19 17 15 13 12 11 11 12 9 5 2 1 2 5 7 6 4 2 1 1 1 1 2 3 3 3 3 2 1 1 0 0 0 1 1 0
38 33 27 23 19 17 17 16 16 14 14 14 13 11 10 8 5 3 1 1 3 4 5 4 2 1 0 0 0 1 2 2 3 3 3 2 1 0 0 0 0 0 0
30 26 22 20 18 16 15 14 14 14 14 14 13 10 8 6 5 3 1 0 1 1 2 2 1 0 0 0 0 0 0 1 2 3 3 2 1 0 0 0 0 0 0
24 22 19 18 17 16 13 12 12 11 11 12 13 11 8 5 4 3 1 1 1 1 1 1 1 1 0 0 0 0 0 1 2 2 2 1 0 0 0 0 0 0 0
22 20 18 16 14 13 11 9 8 7 7 9 11 10 7 4 2 1 1 2 2 2 2 2 2 2 1 0 0 0 0 0 1 1 1 0 0 0 0 0 0 0 0
19 17 14 13 11 10 9 7 4 3 2 3 4 5 4 2 0 0 1 1 1 1 1 3 3 3 2 1 1 0 0 0 0 0 0 0 0 0 0 0 0 0 0
15 13 11 10 9 8 8 8 5 3 1 0 0 0 1 0 0 0 0 0 0 0 1 2 2 2 2 2 1 0 0 0 0 0 0 0 0 0 0 0 0 0 0
13 11 10 10 9 8 8 9 8 6 4 1 0 0 0 0 0 0 0 0 0 0 0 1 1 1 1 1 1 0 0 0 0 0 0 0 0 0 0 0 0 0 0
11 10 9 9 9 8 9 9 9 9 6 2 1 0 0 0 0 0 0 0 0 0 0 0 0 0 0 0 0 0 0 0 0 0 0 0 0 0 0 0 0 0 0
10 9 8 8 7 8 8 8 8 7 6 4 2 0 0 0 0 0 0 0 0 0 0 0 0 0 0 0 0 0 0 0 0 0 0 0 0 0 0 0 0 0 0
7 7 7 7 6 7 7 6 6 6 6 5 2 0 0 0 0 0 0 0 0 0 0 0 0 0 0 0 0 0 0 0 0 0 0 0 0 0 0 0 0 0 0
5 5 6 6 6 6 6 6 6 6 6 4 1 0 0 0 0 0 0 0 0 0 0 0 0 0 0 0 0 0 0 0 0 0 0 0 0 0 0 0 0 0 0
2 2 3 5 6 5 6 6 5 5 5 3 1 0 0 0 0 0 0 0 0 0 0 0 0 0 0 0 0 0 0 0 0 0 0 0 0 0 0 0 0 0 0
0 0 2 4 4 4 4 4 3 3 3 1 0 0 0 0 0 0 0 0 0 0 0 0 0 0 0 0 0 0 0 0 0 0 0 0 0 0 0 0 0 0 0
0 0 1 2 2 2 1 1 1 1 1 0 0 0 0 0 0 0 0 0 0 0 0 0 0 0 0 0 0 0 0 0 0 0 0 0 0 0 0 0 0 0 0
0 0 1 1 1 0 0 0 0 0 0 0 0 0 0 0 0 0 0 0 0 0 0 0 0 0 0 0 0 0 0 0 0 0 0 0 0 0 0 0 0 0 0
Wind_Speed
4 3 3 3 3 3 2 2 1 1 1 1 1 1 1 1 1 1 1 1 1 1 1 1 1 1 1 2 1 1 0 1 2 1 0 1 2 3 3 3 4 4 5
4 3 3 3 3 3 2 2 2 2 1 1 1 1 1 1 1 1 0 0 1 1 1 1 1 1 0 1 1 1 0 0 2 2 1 1 1 2 3 3 3 5 4
5 4 4 3 3 2 2 2 2 2 2 2 2 2 1 2 2 2 2 2 2 2 2 2 2 2 2 1 1 1 1 1 1 2 2 1 1 1 2 2 4 3 5
6 5 4 3 3 2 3 3 3 3 3 3 3 3 3 3 3 2 2 2 3 3 3 3 3 3 2 2 2 2 1 1 1 2 2 2 1 2 2 2 2 2 3
6 5 4 4 4 3 3 3 3 3 3 3 3 3 3 2 2 2 2 3 3 4 4 5 6 7 8 5 4 3 2 1 1 2 2 2 1 1 1 1 3 3 3
6 6 5 5 4 3 3 4 3 3 3 4 4 4 4 3 5 5 4 4 4 5 4 4 5 6 9 10 12 11 9 4 2 1 2 2 2 1 1 2 2 2 2
5 5 5 5 5 4 4 4 4 4 4 4 4 5 5 6 7 7 6 5 5 5 4 4 4 5 5 5 7 10 11 11 8 4 4 3 3 2 1 2 2 2 2
6 5 5 5 5 5 4 4 4 4 4 4 4 5 6 6 7 7 7 6 6 6 5 5 5 5 5 5 6 8 8 8 7 5 5 4 4 2 2 2 2 3 2
6 5 5 6 5 5 4 4 4 4 5 5 5 5 5 5 6 6 5 5 5 6 6 6 5 5 7 7 6 6 5 5 8 10 9 7 8 7 5 3 2 1 2
5 5 6 6 6 5 5 5 4 4 5 5 5 5 6 5 6 6 4 4 4 5 5 6 9 7 8 7 5 5 5 4 4 5 5 4 4 4 6 4 3 2 2
5 6 6 5 6 6 5 4 5 5 5 5 6 5 5 5 6 6 5 2 3 4 4 4 4 7 8 7 5 4 3 2 1 3 3 3 3 3 4 4 4 3 3
6 6 6 5 4 5 5 5 4 5 6 5 5 4 4 5 5 5 7 6 4 5 4 4 4 6 6 6 5 4 3 2 1 2 3 3 3 3 3 3 3 3 3
7 6 6 5 5 4 5 4 4 3 4 4 4 4 4 4 4 7 8 8 8 5 5 7 5 5 4 4 5 5 3 2 2 2 3 3 3 2 2 2 2 1 1
7 6 5 5 4 4 3 3 2 2 2 3 4 4 4 4 3 3 4 5 7 6 5 5 4 3 2 3 3 2 2 2 2 2 2 2 2 2 1 1 1 1 1
7 6 6 5 5 5 6 5 4 5 3 2 2 3 4 4 3 3 2 3 3 4 3 2 2 2 2 2 2 1 1 1 2 2 1 1 1 1 1 1 0 1 1
5 5 5 5 5 5 6 7 13 10 11 12 10 7 6 7 7 6 7 7 6 5 3 2 2 2 2 2 1 1 2 2 1 1 1 1 1 1 1 1 1 1 1
5 5 4 5 5 5 5 6 6 7 11 12 11 11 9 8 8 7 6 5 3 2 1 2 2 1 1 1 1 1 2 1 1 1 1 1 1 1 1 1 1 1 1
5 5 4 4 4 4 4 5 5 6 5 5 6 8 7 7 6 5 4 3 1 2 1 2 2 2 1 1 1 1 1 1 0 1 1 1 1 1 1 1 1 1 1
4 4 4 4 4 4 4 4 5 5 6 5 5 4 4 4 3 1 1 0 1 1 1 2 2 1 1 1 1 1 1 1 1 1 1 1 1 1 1 2 1 0 1
5 6 5 4 4 4 4 4 5 5 5 5 5 4 4 3 2 2 2 2 1 1 1 2 1 1 2 1 1 1 1 1 1 0 0 0 1 1 1 1 1 1 1
4 5 5 4 4 4 3 4 4 4 4 5 4 5 5 3 3 3 3 2 1 1 1 1 1 1 2 2 1 1 1 1 1 0 0 1 1 1 2 1 2 2 1
4 4 4 4 4 3 3 3 4 4 4 5 5 6 6 3 2 2 2 2 1 1 1 1 1 1 1 1 2 1 1 1 1 0 1 1 1 2 2 2 2 1 2
3 4 4 4 4 4 3 2 3 3 3 4 4 4 4 3 2 2 2 2 1 1 1 1 1 1 1 1 1 1 0 0 0 0 1 2 2 2 2 2 2 3 2
3 4 4 4 4 3 3 3 3 3 3 4 4 4 4 3 2 2 2 2 2 1 1 1 1 2 2 2 1 1 0 0 1 1 2 3 3 2 2 2 3 3 3
3 3 4 3 3 3 2 3 2 3 3 3 3 3 3 3 3 2 2 2 2 2 2 2 2 2 3 3 2 2 2 2 0 2 2 3 4 3 3 4 3 4 4
3 3 3 3 2 2 2 2 2 2 2 2 2 2 2 3 3 2 2 2 2 2 2 2 3 3 4 4 4 4 5 4 3 2 3 3 4 4 4 4 5 5 5
Wind_Direction
165 164 148 160 174 174 173 165 140 118 128 137 127 143 161 174 181 182 231 208 216 226 246 217 222 281 331 331 328 324 323 175 189 186 113 62 82 92 107 117 109 100 104
144 139 135 136 148 154 158 148 127 117 113 101 101 106 120 109 99 101 101 75 73 60 15 11 336 318 343 319 330 339 342 142 162 165 156 132 106 114 123 127 117 112 110
142 136 128 132 133 136 128 122 123 123 119 101 88 92 88 95 95 85 75 62 68 68 59 59 37 22 0 4 2 5 3 34 128 154 160 159 148 146 133 127 115 116 126
136 132 130 133 129 119 114 109 112 115 106 94 82 78 75 73 71 74 86 83 78 73 64 63 56 53 41 28 34 16 16 50 115 134 146 151 151 166 144 143 124 103 98
134 134 133 125 120 117 113 110 104 105 109 100 93 82 81 78 69 85 102 102 92 84 72 69 69 70 63 58 56 36 32 46 92 124 127 120 118 131 150 153 127 120 84
133 137 131 124 122 121 116 112 108 105 106 103 100 89 75 65 59 72 83 85 82 80 78 81 84 73 76 72 68 61 54 50 40 77 96 106 96 75 73 92 103 115 108
139 137 135 133 125 118 116 111 108 106 104 101 96 95 86 64 58 68 80 86 80 73 71 68 69 67 71 74 74 66 56 48 50 67 76 80 85 63 84 98 99 97 109
144 141 139 133 127 119 115 111 109 108 106 102 99 96 92 72 63 65 79 83 79 72 67 67 71 58 49 67 82 74 61 46 48 64 71 66 68 60 57 128 141 128 103
147 142 139 132 126 121 117 111 107 106 105 100 96 95 91 75 59 64 79 95 89 80 72 64 69 68 53 68 85 88 85 80 70 76 82 82 75 65 57 63 67 114 122
145 138 133 129 126 123 119 117 114 110 104 102 96 92 92 85 62 60 74 111 107 101 90 76 64 65 55 59 83 87 83 74 86 88 77 71 78 77 63 51 44 49 95
117 113 115 119 120 119 116 115 117 115 109 103 98 91 88 84 79 66 58 90 108 110 102 88 74 68 61 56 66 78 86 91 116 121 116 105 89 73 64 54 42 50 63
113 113 111 110 115 117 117 116 119 124 123 118 112 102 91 83 73 71 66 66 82 94 96 93 86 79 71 61 62 59 50 33 74 93 91 88 87 78 73 75 70 68 84
114 113 110 105 101 111 122 131 140 149 142 135 133 124 112 103 89 81 80 76 78 86 92 101 100 90 80 67 65 54 35 20 39 66 76 83 92 101 99 96 94 79 62
124 122 121 118 111 103 101 109 114 117 133 138 136 131 128 121 109 105 109 102 101 99 106 114 113 92 70 79 75 55 47 33 38 59 81 95 111 120 121 120 155 179 147
134 136 132 123 114 91 70 48 57 54 50 81 115 123 132 125 111 94 111 112 111 103 123 145 149 137 128 113 96 75 67 56 46 50 56 77 93 96 99 98 21 331 47
137 136 131 129 124 119 112 85 54 61 62 63 65 77 85 99 115 100 86 85 89 101 105 132 134 130 122 122 131 123 89 53 27 39 32 39 43 49 71 69 46 5 356
132 129 129 132 133 134 134 128 115 78 64 64 70 79 93 106 102 94 87 85 96 119 117 121 117 106 96 111 110 103 103 93 360 27 41 36 26 19 58 79 68 3 351
120 118 123 128 135 136 134 133 134 134 122 95 75 83 99 104 99 93 93 94 150 185 162 140 140 136 133 108 94 90 104 121 107 46 47 27 9 5 5 8 78 44 336
109 113 115 114 117 119 125 124 121 124 121 122 120 106 107 113 102 97 101 231 183 159 163 140 135 139 134 115 99 93 90 86 76 42 33 20 349 350 356 350 12 39 276
93 89 103 114 116 119 123 126 126 129 129 132 135 134 144 154 159 170 198 239 212 185 175 141 136 133 124 124 134 150 139 138 152 180 270 317 308 318 310 303 309 301 289
113 113 115 120 120 121 123 122 123 129 131 137 143 150 164 182 180 176 182 210 211 190 172 152 146 148 152 160 165 167 160 149 142 211 305 294 297 296 293 284 284 293 305
114 127 130 121 118 118 125 131 134 139 145 149 146 152 176 212 208 184 183 188 192 185 177 180 165 152 150 154 145 151 185 180 166 237 280 269 267 272 273 281 294 306 306
117 121 116 113 116 122 144 146 148 153 150 146 141 149 174 208 207 173 175 179 184 176 162 163 152 144 135 119 114 124 102 326 289 337 306 300 299 298 300 304 308 308 309
120 119 120 125 131 151 160 157 160 153 147 145 153 165 174 187 197 186 188 187 184 174 175 189 194 187 159 141 152 147 106 31 322 315 307 298 293 297 297 291 291 297 303
136 136 138 142 148 160 159 154 152 147 146 157 169 171 178 187 191 194 186 184 190 195 208 212 191 179 184 187 175 167 151 151 173 311 294 284 282 286 291 291 287 284 280
126 132 139 143 150 154 146 144 144 144 148 158 166 174 191 201 199 192 188 191 201 199 211 215 203 197 197 200 192 182 176 185 201 239 267 272 276 276 282 282 286 284 283